Tracking 23099 objects as of 13-May-2021
HD Live streaming from Space Station
objects crossing your sky now

AEROCUBE 2

Track AEROCUBE 2 now!
10-day predictions
AEROCUBE 2 is classified as:


NORAD ID: 31133
Int'l Code: 2007-012R
Perigee: 645.3 km
Apogee: 759.7 km
Inclination: 98.2 °
Period: 98.7 minutes
Semi major axis: 7073 km
RCS: 0.0127 m2 (small)
Launch date: April 17, 2007
Source: United States (US)
Launch site: TYURATAM MISSILE AND SPACE COMPLEX (TTMTR)

Uplink (MHz):
Downlink (MHz): 902-928
Beacon (MHz):
Mode: 9600bps GFSK
Call sign:
Status: Inactive

aabbcc
Your satellite tracking list
Your tracking list is empty




NASA's NSSDC Master Catalog

Two Line Element Set (TLE):
1 31133U 07012R   21132.38661165  .00000123  00000-0  35060-4 0  9990
2 31133  98.2064  77.9908 0080864  12.2920 348.0228 14.59328008748280
Source of the keplerian elements: AFSPC